Regional Weather Roundup
Issued by NWS Albany, NY

Home | Current Version | Previous Version | Text Only | Print | Product List | Glossary On
Versions: 1 2 3 4 5 6 7 8 9 10 11 12 13 14 15 16 17 18 19 20 21 22 23 24 25 26 27 28 29 30 31 32 33 34 35 36 37 38 39 40 41 42 43 44 45 46 47 48 49 50
000
ASUS41 KALY 251210
RWRALY

NEW YORK STATE HOURLY WEATHER ROUNDUP
NATIONAL WEATHER SERVICE ALBANY NY
800 AM EDT FRI JUL 25 2014

NOTE: "FAIR" INDICATES FEW OR NO CLOUDS BELOW 12,000 FEET WITH NO
SIGNIFICANT WEATHER AND/OR NO OBSTRUCTIONS TO VISIBILITY.

NYZ032-033-038>043-046>054-057>066-NYZ062>081-251300-
EAST


CITY           SKY/WX    TMP DP  RH WIND       PRES   REMARKS
ALBANY         SUNNY     61  53  75 CALM      30.03R
GLENS FALLS    SUNNY     59  54  83 S3        30.02R
POUGHKEEPSIE   SUNNY     62  55  77 CALM      30.03R
NEWBURGH       SUNNY     61  57  88 W7        30.05R
MONTGOMERY     SUNNY     60  55  83 CALM      30.05R
WHITE PLAINS   MOSUNNY   66  53  63 N12       30.01R
ISLIP          MOSUNNY   72  57  59 N10       29.98R
NEW YORK CITY  MOSUNNY   70  54  56 N7        30.00R
CENTRAL PARK   SUNNY     69  53  56 VRB6      30.04R
$$

NYZ005>009-017-018-044>046-055-056-251300-
CENTRAL


CITY           SKY/WX    TMP DP  RH WIND       PRES   REMARKS
FULTON         SUNNY     59  54  83 SW6       30.05R
SYRACUSE       SUNNY     62  55  77 SW6       30.05R
ROME           SUNNY     56  53  90 CALM      30.07R
ELMIRA         SUNNY     52  50  93 SW6       30.09R
BINGHAMTON     SUNNY     54  50  86 W3        30.08R
MONTICELLO     SUNNY     57  52  82 CALM      30.08R
$$

NYZ026>034-041>043-251300-
NORTH


CITY           SKY/WX    TMP DP  RH WIND       PRES   REMARKS
WATERTOWN      SUNNY     63  55  75 S6        30.03R
FORT DRUM      NOT AVBL
MASSENA        PTSUNNY   60  57  89 SW8       29.99R
SARANAC LAKE   SUNNY     55  53  93 SW8       30.01R
PLATTSBURGH    SUNNY     64  57  78 S3        29.96R
$$

NYZ001>004-010>016-019>021-251300-
WEST


CITY           SKY/WX    TMP DP  RH WIND       PRES   REMARKS
NIAGARA FALLS  SUNNY     61  57  87 S5        30.07R
BUFFALO        SUNNY     58  52  80 S7        30.08R
DUNKIRK        SUNNY     61  52  72 S8        30.09R
JAMESTOWN      SUNNY     50  46  87 S3        30.12R
WELLSVILLE     SUNNY     55  49  80 CALM      30.13R
ROCHESTER      SUNNY     56  51  84 SW9       30.08R
PENN YAN       SUNNY     57  53  86 SW7       30.08R
$$

             KEY
       WCI = WIND CHILL INDEX
       VSB = VISIBILITY
       HX  = HEAT INDEX
$$


USA.gov is the U.S. government's official web portal to all federal, state and local government web resources and services.